Tracking 18033 objects as of 23-March-2017
HD Live streaming from Space Station
objects crossing your sky now

COSMOS 2251 DEB

Track COSMOS 2251 DEB now!
10-day predictions


NORAD ID: 38196
Int'l Code: 1993-036BSL
Perigee: 619.4 km
Apogee: 913.5 km
Inclination: 73.9 °
Period: 100.0 minutes
Semi major axis: 7137 km
RCS: 0.0033 m2 (small)
Launch date: June 16, 1993
Source: Commonwealth of Independent States (former USSR) (CIS)
Launch site: PLESETSK MISSILE AND SPACE COMPLEX (PKMTR)

Note: This is SATELLITE DEBRIS
Your satellite tracking list
Your tracking list is empty





NASA's NSSDC Master Catalog

Two Line Element Set (TLE):
1 38196U 93036BSL 17074.65380499 +.00001500 +00000-0 +38084-3 0  9993
2 38196 073.8914 065.4775 0206036 195.5784 163.8972 14.39759721315015
Source of the keplerian elements: AFSPC